DW2217 Weather Reports


time (UTC)temp
C
wind
direction
speed
KPH
gust
KPH
rain 1hr
cm
rain 24hr
cm
rain mn
cm
humidity
%
barometer
mb
20260508205455 11 291 4.8 11.3 0.00 0.00 0.00 43 1007.8
20260508204951 10 274 11.3 16.1 0.00 0.00 0.00 41 1008.0
20260508204448 10 274 11.3 14.5 0.00 0.00 0.00 41 1008.0
20260508203943 10 265 9.7 14.5 0.00 0.00 0.00 42 1007.8
20260508203440 10 282 12.9 14.5 0.00 0.00 0.00 42 1007.7
20260508202935 10 278 11.3 14.5 0.00 0.00 0.00 43 1007.8
20260508202433 10 270 17.7 22.5 0.00 0.00 0.00 42 1007.6
20260508201929 10 324 12.9 16.1 0.00 0.00 0.00 43 1007.5
20260508201421 10 273 17.7 19.3 0.00 0.00 0.00 43 1007.8
20260508200918 10 269 16.1 22.5 0.00 0.00 0.00 43 1007.7
20260508200414 10 300 6.4 19.3 0.00 0.00 0.00 44 1007.7
20260508195910 10 285 17.7 19.3 0.00 0.00 0.00 45 1007.8
20260508195407 10 267 14.5 22.5 0.00 0.00 0.00 44 1007.6
20260508194903 10 275 12.9 22.5 0.00 0.00 0.00 45 1007.7
20260508194400 10 299 14.5 19.3 0.00 0.00 0.00 43 1007.4
20260508193857 11 278 12.9 19.3 0.00 0.00 0.00 43 1007.3
20260508193354 11 268 11.3 16.1 0.00 0.00 0.00 42 1007.3
20260508192850 11 267 11.3 22.5 0.00 0.00 0.00 41 1007.3
20260508192347 11 279 8.0 14.5 0.00 0.00 0.00 44 1007.3
20260508191845 11 252 8.0 11.3 0.00 0.00 0.00 44 1007.4
20260508191342 11 285 9.7 11.3 0.00 0.00 0.00 44 1007.3
20260508190839 11 275 11.3 14.5 0.00 0.00 0.00 44 1007.1
20260508190335 11 264 11.3 14.5 0.00 0.00 0.00 45 1007.2
20260508185831 11 272 14.5 22.5 0.00 0.00 0.00 43 1007.2
20260508185329 11 267 14.5 19.3 0.00 0.00 0.00 42 1006.9
20260508184826 11 277 8.0 11.3 0.00 0.00 0.00 43 1006.8
20260508184323 11 269 12.9 16.1 0.00 0.00 0.00 41 1006.9
20260508183820 11 309 12.9 14.5 0.00 0.00 0.00 40 1007.3
20260508183317 11 253 11.3 14.5 0.00 0.00 0.00 43 1006.7
20260508182812 11 268 17.7 22.5 0.00 0.00 0.00 39 1007.0
20260508182310 11 241 11.3 16.1 0.00 0.00 0.00 41 1006.9
20260508181805 11 274 14.5 14.5 0.00 0.00 0.00 41 1007.0
20260508181302 11 256 12.9 16.1 0.00 0.00 0.00 39 1006.8
20260508180759 11 275 17.7 22.5 0.00 0.00 0.00 39 1006.7
20260508180256 11 267 9.7 14.5 0.00 0.00 0.00 40 1006.8
20260508175752 11 288 4.8 4.8 0.00 0.00 0.00 41 1006.9
20260508175249 11 294 9.7 16.1 0.00 0.00 0.00 41 1006.7
20260508174747 11 279 4.8 14.5 0.00 0.00 0.00 39 1006.8
20260508174244 12 303 17.7 24.1 0.00 0.00 0.00 39 1006.8
20260508173741 11 295 11.3 19.3 0.00 0.00 0.00 40 1006.8
20260508173236 12 329 11.3 16.1 0.00 0.00 0.00 38 1006.5
20260508172733 12 289 14.5 19.3 0.00 0.00 0.00 38 1006.7
20260508172230 12 286 11.3 16.1 0.00 0.00 0.00 41 1006.7
20260508171727 12 267 4.8 8.0 0.00 0.00 0.00 41 1006.7
20260508171223 11 270 11.3 16.1 0.00 0.00 0.00 43 1006.8
20260508170720 11 252 8.0 11.3 0.00 0.00 0.00 43 1006.7
20260508170218 11 249 17.7 19.3 0.00 0.00 0.00 41 1006.7
20260508165715 11 269 11.3 14.5 0.00 0.00 0.00 42 1006.8
20260508165212 11 271 11.3 14.5 0.00 0.00 0.00 43 1006.8
20260508164708 11 220 11.3 14.5 0.00 0.00 0.00 42 1006.7
20260508164205 11 269 12.9 16.1 0.00 0.00 0.00 44 1006.8
20260508163703 11 321 11.3 14.5 0.00 0.00 0.00 41 1006.9
20260508163200 12 273 9.7 14.5 0.00 0.00 0.00 40 1006.7
20260508162655 12 264 8.0 11.3 0.00 0.00 0.00 40 1007.0
20260508162153 11 279 14.5 19.3 0.00 0.00 0.00 42 1006.8
20260508161650 11 270 14.5 16.1 0.00 0.00 0.00 42 1006.9
20260508161147 11 246 8.0 11.3 0.00 0.00 0.00 45 1006.9
20260508160645 11 320 3.2 4.8 0.00 0.00 0.00 45 1007.0
20260508160143 10 280 6.4 8.0 0.00 0.00 0.00 47 1007.2
20260508155639 10 306 4.8 4.8 0.00 0.00 0.00 48 1007.1
20260508155136 10 324 4.8 8.0 0.00 0.00 0.00 46 1007.0
20260508154633 10 266 6.4 8.0 0.00 0.00 0.00 48 1007.2
20260508154130 10 299 9.7 14.5 0.00 0.00 0.00 45 1007.2
20260508153627 10 300 11.3 14.5 0.00 0.00 0.00 45 1007.2
20260508153124 10 285 11.3 14.5 0.00 0.00 0.00 46 1007.3
20260508152621 10 308 4.8 8.0 0.00 0.00 0.00 46 1007.1
20260508152116 10 272 6.4 8.0 0.00 0.00 0.00 45 1007.1
20260508151613 10 283 14.5 16.1 0.00 0.00 0.00 43 1007.1
20260508151110 10 283 12.9 22.5 0.00 0.00 0.00 43 1007.0
20260508150607 11 316 11.3 14.5 0.00 0.00 0.00 42 1007.1
20260508145559 11 318 11.3 19.3 0.00 0.00 0.00 40 1007.0
20260508145056 10 294 8.0 11.3 0.00 0.00 0.00 43 1007.1
20260508144554 10 270 9.7 11.3 0.00 0.00 0.00 43 1007.1
20260508144051 10 295 8.0 22.5 0.00 0.00 0.00 42 1007.0
20260508143548 10 276 11.3 14.5 0.00 0.00 0.00 42 1007.0
20260508143045 10 283 8.0 11.3 0.00 0.00 0.00 45 1007.0
20260508142542 11 273 11.3 24.1 0.00 0.00 0.00 40 1007.0
20260508142038 11 284 11.3 14.5 0.00 0.00 0.00 40 1007.1
20260508141535 11 282 9.7 16.1 0.00 0.00 0.00 42 1007.4
20260508141033 11 291 9.7 14.5 0.00 0.00 0.00 43 1007.2
20260508140530 11 269 14.5 19.3 0.00 0.00 0.00 43 1007.2
20260508140026 11 267 11.3 19.3 0.00 0.00 0.00 44 1007.5
20260508135521 10 275 12.9 22.5 0.00 0.00 0.00 45 1007.4
20260508135018 10 317 8.0 19.3 0.00 0.00 0.00 45 1007.6
20260508134515 10 332 6.4 14.5 0.00 0.00 0.00 46 1007.8
20260508134012 10 266 9.7 14.5 0.00 0.00 0.00 46 1007.6
20260508133509 10 301 11.3 19.3 0.00 0.00 0.00 46 1007.6
20260508133006 10 268 9.7 14.5 0.00 0.00 0.00 49 1007.8
20260508132504 10 241 8.0 11.3 0.00 0.00 0.00 49 1007.6
20260508132000 10 249 12.9 14.5 0.00 0.00 0.00 50 1007.5
20260508131455 10 327 6.4 8.0 0.00 0.00 0.00 50 1007.6
20260508130952 9 332 9.7 14.5 0.00 0.00 0.00 50 1007.6
20260508130450 9 271 11.3 14.5 0.00 0.00 0.00 50 1007.7
20260508125945 9 338 11.3 16.1 0.00 0.00 0.00 50 1007.7
20260508125441 9 295 11.3 16.1 0.00 0.00 0.00 51 1007.7
20260508124939 9 275 14.5 16.1 0.00 0.00 0.00 51 1007.8
20260508124437 9 288 12.9 19.3 0.00 0.00 0.00 52 1007.8
20260508123934 9 268 12.9 14.5 0.00 0.00 0.00 53 1007.8
20260508123433 8 268 14.5 16.1 0.00 0.00 0.00 52 1007.7
20260508122929 8 264 8.0 16.1 0.00 0.00 0.00 53 1007.8
20260508122426 8 285 9.7 14.5 0.00 0.00 0.00 55 1007.7
20260508121923 8 272 9.7 11.3 0.00 0.00 0.00 54 1007.8
20260508121421 8 273 12.9 19.3 0.00 0.00 0.00 53 1007.9
20260508120918 8 302 6.4 14.5 0.00 0.00 0.00 53 1007.7
20260508120416 8 237 8.0 11.3 0.00 0.00 0.00 53 1007.8
20260508115913 8 310 4.8 4.8 0.00 0.00 0.00 54 1008.0
20260508115412 8 356 3.2 4.8 0.00 0.00 0.00 57 1007.8
20260508114907 8 225 3.2 8.0 0.00 0.00 0.00 56 1007.7
20260508114404 7 26 0.0 3.2 0.00 0.00 0.00 55 1007.6
20260508113901 7 22 3.2 4.8 0.00 0.00 0.00 58 1007.7
20260508113359 7 32 3.2 3.2 0.00 0.00 0.00 57 1007.8
20260508112856 7 17 1.6 3.2 0.00 0.00 0.00 59 1007.6
20260508112353 6 18 1.6 3.2 0.00 0.00 0.00 62 1007.5
20260508111849 6 19 0.0 3.2 0.00 0.00 0.00 64 1007.9
20260508111346 5 18 0.0 0.0 0.00 0.00 0.00 65 1007.7
20260508110843 6 42 3.2 4.8 0.00 0.00 0.00 66 1007.6
20260508110341 7 349 0.0 3.2 0.00 0.00 0.00 58 1007.7
20260508105841 6 349 0.0 0.0 0.00 0.00 0.00 59 1007.4
20260508105337 5 348 0.0 0.0 0.00 0.00 0.00 64 1007.6
20260508104834 5 348 0.0 0.0 0.00 0.00 0.00 66 1007.4
20260508104331 4 348 1.6 3.2 0.00 0.00 0.00 66 1007.6
20260508103829 3 348 0.0 0.0 0.00 0.00 0.00 71 1007.5
20260508103325 3 348 0.0 3.2 0.00 0.00 0.00 73 1007.3
20260508102823 3 348 0.0 0.0 0.00 0.00 0.00 73 1007.3
20260508102321 3 357 0.0 4.8 0.00 0.00 0.00 75 1007.2
20260508101818 3 1 3.2 3.2 0.00 0.00 0.00 73 1007.2
20260508101315 3 1 0.0 3.2 0.00 0.00 0.00 71 1007.1
20260508100813 3 1 0.0 3.2 0.00 0.00 0.00 70 1007.0
20260508100311 3 1 0.0 3.2 0.00 0.00 0.00 71 1006.9
20260508095806 3 1 0.0 0.0 0.00 0.00 0.00 71 1007.0
20260508095306 3 1 0.0 0.0 0.00 0.00 0.00 71 1006.9
20260508094801 3 1 0.0 0.0 0.00 0.00 0.00 70 1006.9
20260508094258 3 0 0.0 3.2 0.00 0.00 0.00 69 1007.0
20260508093755 3 320 3.2 4.8 0.00 0.00 0.00 68 1006.9
20260508093253 3 320 3.2 3.2 0.00 0.00 0.00 68 1006.7
20260508092749 3 319 3.2 4.8 0.00 0.00 0.00 68 1006.7
20260508092248 3 320 3.2 3.2 0.00 0.00 0.00 68 1006.6
20260508091746 3 326 3.2 4.8 0.00 0.00 0.00 71 1006.6
20260508091242 3 326 0.0 3.2 0.00 0.00 0.00 71 1006.5
20260508090740 3 326 3.2 3.2 0.00 0.00 0.00 66 1006.4
20260508090238 3 326 1.6 3.2 0.00 0.00 0.00 66 1006.5
20260508085733 3 326 3.2 3.2 0.00 0.00 0.00 66 1006.4
20260508085230 3 325 3.2 4.8 0.00 0.00 0.00 66 1006.4
20260508084726 3 327 1.6 3.2 0.00 0.00 0.00 68 1006.1
20260508084224 3 327 3.2 3.2 0.00 0.00 0.00 67 1006.2
20260508083721 3 326 3.2 4.8 0.00 0.00 0.00 67 1006.3
20260508083219 3 328 4.8 4.8 0.00 0.00 0.00 69 1006.4
20260508082713 3 328 3.2 4.8 0.00 0.00 0.00 70 1006.2
20260508082212 3 328 3.2 4.8 0.00 0.00 0.00 69 1006.2
20260508081709 3 328 3.2 4.8 0.00 0.00 0.00 69 1006.3
20260508081205 3 322 3.2 4.8 0.00 0.00 0.00 69 1006.3
20260508080702 3 323 3.2 4.8 0.00 0.00 0.00 67 1006.2
20260508080201 3 325 3.2 3.2 0.00 0.00 0.00 71 1006.2
20260508075657 3 325 1.6 3.2 0.00 0.00 0.00 70 1005.9
20260508075154 2 325 3.2 3.2 0.00 0.00 0.00 70 1006.0
20260508074651 3 325 3.2 4.8 0.00 0.00 0.00 70 1005.9
20260508074148 2 331 3.2 4.8 0.00 0.00 0.00 72 1006.0
20260508073645 3 331 0.0 3.2 0.00 0.00 0.00 69 1006.1
20260508073143 3 331 0.0 3.2 0.00 0.00 0.00 66 1005.9
20260508072638 3 331 0.0 0.0 0.00 0.00 0.00 65 1006.0
20260508072136 3 331 0.0 0.0 0.00 0.00 0.00 65 1006.0
20260508071633 3 331 3.2 3.2 0.00 0.00 0.00 63 1006.1
20260508071132 3 331 3.2 4.8 0.00 0.00 0.00 64 1006.1
20260508070629 3 332 0.0 3.2 0.00 0.00 0.00 70 1006.2
20260508070127 3 331 0.0 3.2 0.00 0.00 0.00 73 1005.9
20260508065624 3 332 0.0 3.2 0.00 0.00 0.00 69 1005.9
20260508065122 4 332 0.0 3.2 0.00 0.00 0.00 61 1005.9
20260508064620 4 331 0.0 3.2 0.00 0.00 0.00 61 1006.1
20260508064118 4 331 0.0 0.0 0.00 0.00 0.00 60 1006.1
20260508063615 4 331 0.0 3.2 0.00 0.00 0.00 60 1006.2
20260508063113 4 331 0.0 3.2 0.00 0.00 0.00 60 1006.3
20260508062610 4 331 0.0 3.2 0.00 0.00 0.00 60 1006.3
20260508062106 4 331 0.0 0.0 0.00 0.00 0.00 60 1006.3
20260508061603 4 331 0.0 0.0 0.00 0.00 0.00 61 1006.3
20260508061100 4 331 0.0 0.0 0.00 0.00 0.00 61 1006.4
20260508060552 4 331 0.0 3.2 0.00 0.00 0.00 61 1006.5
20260508060049 4 331 0.0 0.0 0.00 0.00 0.00 61 1006.4
20260508055545 4 331 1.6 3.2 0.00 0.00 0.00 61 1006.6
20260508055042 5 330 0.0 3.2 0.00 0.00 0.00 60 1006.5
20260508054538 5 330 3.2 3.2 0.00 0.00 0.00 60 1006.6
20260508054036 5 330 3.2 3.2 0.00 0.00 0.00 59 1006.6
20260508053532 5 330 3.2 3.2 0.00 0.00 0.00 59 1006.6
20260508053031 5 329 3.2 4.8 0.00 0.00 0.00 56 1006.8
20260508052528 5 330 3.2 4.8 0.00 0.00 0.00 57 1006.7
20260508052024 5 330 3.2 3.2 0.00 0.00 0.00 57 1007.0
20260508051521 5 330 3.2 3.2 0.00 0.00 0.00 58 1006.9
20260508051016 5 330 3.2 3.2 0.00 0.00 0.00 56 1007.0
20260508050512 5 330 0.0 3.2 0.00 0.00 0.00 59 1007.0
20260508050010 5 330 1.6 3.2 0.00 0.00 0.00 57 1007.0
20260508045506 6 330 3.2 3.2 0.00 0.00 0.00 57 1006.8
20260508045003 6 329 3.2 3.2 0.00 0.00 0.00 56 1007.0
20260508044501 6 309 4.8 4.8 0.00 0.00 0.00 57 1007.0
20260508043956 6 325 4.8 8.0 0.00 0.00 0.00 59 1006.8
20260508043453 6 314 3.2 8.0 0.00 0.00 0.00 60 1007.0
20260508042949 6 295 4.8 4.8 0.00 0.00 0.00 58 1007.0
20260508042448 6 290 4.8 4.8 0.00 0.00 0.00 56 1007.2
20260508041944 6 307 4.8 4.8 0.00 0.00 0.00 54 1007.2
20260508041441 6 334 0.0 3.2 0.00 0.00 0.00 54 1007.2
20260508040938 6 334 1.6 4.8 0.00 0.00 0.00 53 1007.1
20260508040435 6 328 3.2 3.2 0.00 0.00 0.00 56 1007.1
20260508035933 6 325 4.8 4.8 0.00 0.03 0.03 56 1007.2
20260508035429 6 310 4.8 4.8 0.00 0.03 0.03 57 1007.3
20260508034926 6 325 4.8 4.8 0.00 0.03 0.03 64 1007.1
20260508034424 6 292 3.2 4.8 0.00 0.03 0.03 67 1007.0
20260508033920 6 296 3.2 3.2 0.00 0.03 0.03 58 1007.2
20260508033418 7 320 3.2 8.0 0.00 0.03 0.03 50 1007.1
20260508032915 7 329 0.0 3.2 0.00 0.03 0.03 51 1006.9
20260508032412 7 330 3.2 4.8 0.00 0.03 0.03 52 1007.2
20260508031909 7 320 4.8 8.0 0.00 0.03 0.03 53 1007.2
20260508031407 7 299 6.4 8.0 0.00 0.03 0.03 57 1006.9
20260508030902 6 314 4.8 8.0 0.00 0.03 0.03 63 1007.2
20260508030359 7 310 4.8 4.8 0.00 0.03 0.03 61 1007.2
20260508025856 7 305 4.8 8.0 0.00 0.03 0.03 55 1007.1
20260508025353 7 311 4.8 4.8 0.00 0.03 0.03 51 1007.1
20260508024850 8 315 4.8 4.8 0.00 0.03 0.03 47 1007.0
20260508024347 8 312 4.8 4.8 0.00 0.03 0.03 46 1007.1
20260508023843 7 318 3.2 4.8 0.00 0.03 0.03 47 1007.0
20260508023340 8 318 3.2 4.8 0.00 0.03 0.03 48 1006.9
20260508022837 8 318 4.8 4.8 0.00 0.03 0.03 47 1006.8
20260508022333 8 318 3.2 4.8 0.00 0.03 0.03 47 1006.6
20260508021830 7 317 4.8 4.8 0.00 0.03 0.03 50 1006.7
20260508021326 7 320 4.8 4.8 0.00 0.03 0.03 56 1006.6
20260508020822 8 318 3.2 4.8 0.00 0.03 0.03 57 1006.8
20260508020320 8 321 3.2 4.8 0.00 0.03 0.03 52 1006.6
20260508015817 8 315 3.2 4.8 0.00 0.03 0.03 53 1006.7
20260508015314 8 304 4.8 4.8 0.00 0.03 0.03 57 1006.5
20260508014811 8 320 4.8 4.8 0.00 0.03 0.03 54 1006.6
20260508014308 8 324 3.2 4.8 0.00 0.03 0.03 50 1006.6
20260508013803 8 328 3.2 4.8 0.00 0.03 0.03 48 1006.7
20260508013300 8 329 3.2 3.2 0.00 0.03 0.03 45 1006.5
20260508012758 8 330 3.2 3.2 0.00 0.03 0.03 45 1006.6
20260508012255 9 329 3.2 3.2 0.00 0.03 0.03 44 1006.6
20260508011753 9 327 4.8 4.8 0.00 0.03 0.03 44 1006.4
20260508011250 9 347 3.2 3.2 0.00 0.03 0.03 45 1006.4
20260508010747 9 10 1.6 4.8 0.00 0.03 0.03 46 1006.1
20260508010244 9 305 4.8 4.8 0.00 0.03 0.03 45 1006.1
20260508005741 9 326 3.2 4.8 0.00 0.03 0.03 45 1006.1
20260508005238 10 324 3.2 4.8 0.00 0.03 0.03 45 1005.9
20260508004733 10 337 4.8 4.8 0.00 0.03 0.03 44 1005.8
20260508004230 10 328 4.8 4.8 0.00 0.03 0.03 44 1005.9
20260508003727 10 301 4.8 8.0 0.00 0.03 0.03 45 1005.8
20260508003224 10 324 4.8 4.8 0.00 0.03 0.03 44 1005.8
20260508002721 10 338 3.2 4.8 0.00 0.03 0.03 44 1005.6
20260508002218 10 339 1.6 3.2 0.00 0.03 0.03 43 1005.4
20260508001714 11 343 4.8 4.8 0.00 0.03 0.03 41 1005.5
20260508001209 11 348 3.2 3.2 0.00 0.03 0.03 41 1005.3
20260508000706 11 335 3.2 11.3 0.00 0.03 0.03 40 1005.2
20260508000204 11 310 4.8 8.0 0.00 0.03 0.03 38 1005.1
20260507235659 11 307 4.8 11.3 0.00 0.03 0.03 38 1005.3
20260507235157 11 318 6.4 8.0 0.00 0.03 0.03 38 1005.2
20260507234654 12 347 3.2 8.0 0.00 0.03 0.03 37 1005.1
20260507234150 12 333 6.4 8.0 0.00 0.03 0.03 35 1005.1
20260507233647 12 282 6.4 8.0 0.00 0.03 0.03 35 1004.9
20260507233145 12 336 6.4 16.1 0.00 0.03 0.03 33 1004.9
20260507232642 12 287 8.0 14.5 0.00 0.03 0.03 33 1004.9
20260507232139 12 325 4.8 11.3 0.00 0.03 0.03 34 1004.9
20260507231635 13 285 11.3 14.5 0.00 0.03 0.03 32 1004.9
20260507231133 13 306 4.8 14.5 0.00 0.03 0.03 32 1004.7
20260507230629 13 281 14.5 22.5 0.00 0.03 0.03 31 1004.4
20260507230127 13 323 16.1 22.5 0.00 0.03 0.03 31 1004.3
20260507225626 13 308 14.5 19.3 0.00 0.03 0.03 30 1004.5
20260507225123 13 310 12.9 22.5 0.00 0.03 0.03 30 1004.4
20260507224618 13 291 11.3 16.1 0.00 0.03 0.03 30 1004.2
20260507224115 13 304 11.3 16.1 0.00 0.03 0.03 30 1004.1
20260507223611 13 307 6.4 14.5 0.00 0.03 0.03 32 1004.1
20260507223108 13 320 11.3 14.5 0.00 0.03 0.03 32 1003.9
20260507222606 13 275 17.7 22.5 0.00 0.03 0.03 32 1003.9
20260507222102 13 281 6.4 16.1 0.00 0.03 0.03 32 1003.9
20260507221558 13 319 6.4 11.3 0.00 0.03 0.03 33 1003.9
20260507221055 13 307 4.8 8.0 0.00 0.03 0.03 36 1003.9
20260507220552 13 316 8.0 11.3 0.00 0.03 0.03 35 1003.8
20260507220049 13 275 8.0 22.5 0.00 0.03 0.03 34 1003.9
20260507215546 13 311 11.3 16.1 0.00 0.03 0.03 34 1003.8
20260507215044 13 311 6.4 16.1 0.00 0.03 0.03 33 1003.8
20260507214541 15 312 8.0 11.3 0.00 0.03 0.03 33 1004.0
20260507214036 14 277 11.3 14.5 0.00 0.03 0.03 32 1003.8
20260507213533 14 338 9.7 11.3 0.00 0.03 0.03 32 1003.8
20260507213030 14 297 9.7 19.3 0.00 0.03 0.03 32 1003.8
20260507212526 15 282 8.0 19.3 0.00 0.03 0.03 33 1003.6
20260507212023 15 272 9.7 11.3 0.00 0.03 0.03 33 1003.8
20260507211520 15 278 8.0 19.3 0.00 0.03 0.03 31 1003.8
20260507211016 15 259 8.0 14.5 0.00 0.03 0.03 31 1003.8
20260507210513 14 269 9.7 11.3 0.00 0.03 0.03 33 1003.6
20260507210010 13 329 8.0 19.3 0.00 0.03 0.03 32 1003.8